sat.trackr.live / text

‹ back to catalog

STARLINK-4649

NORAD 53831 · 2022-114P

PAYLOAD ACTIVE UNKNOWN

§ Identity

Operator
Country
US
Launch date
2022-09-19
Launch site
AFETR
Launch vehicle
Mass (kg)
RCS (m²)

Purposes: comms

External: N2YO · Heavens-Above · Gunter

§ Orbital elements

Epoch: 2026-05-24T21:06:08.737056Z

Period
95.44 min
Inclination
53.2151°
Eccentricity
0.0001470
Mean motion
15.08836475 rev/d
Perigee alt
538.7 km
Apogee alt
540.8 km
Semi-major
6,917.9 km
B*
2.9372e-5
RAAN
322.0774°
Arg perigee
93.6321°
Mean anomaly
266.4839°
Rev number
20,433

§ Raw data

STARLINK-46491 53831U 22114P   26144.87926779  .00000179  00000+0  29372-4 0  99952 53831  53.2151 322.0774 0001470  93.6321 266.4839 15.08836475204337

JSON: /api/v1/satellites/53831 · /tle

For live sub-satellite position, see the globe view (requires WebGL).

§ Visibility from observer

Set your observer location to see the next 7 days of passes ≥ 10°. The values pass through the URL so the page stays shareable.

No JS? Fill the form by hand. The geolocation button needs JavaScript.